Weather in Kanevskaja

Russia / Krasnodar Krai     46°05′05″N   38°58′18″E
temp.,
°C
wind,
m/s
gust,
m/s
humid.,
%
clouds,
%
prec.,
mm/h
press.,
hPa
HPBL,
m
19 january, tue
tue1900:00−10sw119592 0.0 101921
03:00−11s129085 0.0 102021
06:00−10s2392100 0.0 102038
09:00−8w369696 0.1 1020164
12:00−6wnw2293100 0.2 1022295
15:00−7nw3490100 0.6 1020311
18:00−12nne119572 0.1 102221
21:00−13n119786 0.1 102320
20 january, wed
wed2000:00−13ene1296100 0.1 102421
03:00−14e229798 0.1 102420
06:00−13e119596 0.0 102520
09:00−12ese129398 0.0 102622
12:00−9ese118793 0.0 1027222
15:00−7e108663 0.0 1026296
18:00−12ese129336 0.0 102821
21:00−13ese229317 0.0 102920
21 january, thu
thu2100:00−14ese22940 0.0 103020
03:00−14ese22960 0.0 103120
06:00−14ese23960 0.0 103120
09:00−12ese34932 0.0 103263
12:00−6ese359194 0.0 1031178
15:00−3se469495 0.1 1030254
18:00−2se479599 0.4 1030260
21:00−1sse599498 0.4 1030207
22 january, fri
fri2200:00+1s4119693 0.1 1030289
03:00−2s479354 0.1 1030129
06:00−2s47920 0.0 1029106
09:00−1s49910 0.0 1030164
12:00+1s491001 0.0 1029216
15:00+1sse3810012 0.0 1027174
18:00−1sse348513 0.0 102768
21:00−2sse45786 0.0 102771
23 january, sat
sat2300:00−2sse44770 0.0 102664
03:00−2se457414 0.0 102664
06:00−2sse45732 0.0 102559
09:00−1se347739 0.0 102577
12:00+1se369785 0.0 1024122
15:00+2sse349779 0.0 102373
18:00+1se347799 0.0 102252
21:000se347597 0.0 102252